{"data":{"norad_id":55163,"epoch":"2026-05-25T03:05:28.974048Z","epoch_age_seconds":64227,"freshness":"FRESH","line1":"1 55163U 23004Z   26145.12880757  .00000335  00000+0  90917-3 0  9994","line2":"2 55163  87.8917  25.6542 0002109 102.1112 258.0252 13.11414083162779","mean_motion":13.11414083,"eccentricity":0.0002109,"inclination_deg":87.8917,"raan_deg":25.6542,"arg_perigee_deg":102.1112,"mean_anomaly_deg":258.0252,"bstar":0.00090917,"rev_number":16277,"period_min":109.80513467614,"perigee_km":1216.0917889597,"apogee_km":1219.2957103699,"semimajor_km":7595.8307496648,"source":"CELESTRAK","updated_at":"2026-05-25T13:38:22.644324Z"}}